1516042801.15,16560,8.5,72770.0,-14.11,-47.79,-47.71,0,*69
1516042802.42,16561,8.5,72768.5,-14.13,-47.79,-47.57,0,*6E
1516042803.71,16562,8.44,72766.3,-14.13,-47.71,-47.79,0,*69
1516042804.96,16563,8.5,72768.0,-14.13,-47.99,-48.07,0,*68
1516042806.26,16564,8.5,72770.3,-14.13,-47.79,-47.71,0,*6F
1516042807.55,16565,8.44,72768.0,-14.13,-47.71,-47.79,0,*6E
1516042808.84,16566,8.44,72764.8,-14.13,-47.71,-47.79,0,*6D
1516042810.11,16567,8.44,72770.3,-14.13,-47.85,-47.79,0,*67
1516042811.41,16568,8.44,72768.0,-14.13,-47.79,-47.71,0,*63
1516042812.66,16569,8.5,72768.3,-14.13,-47.85,-47.85,0,*6A
1516042813.89,16570,8.5,72770.8,-14.11,-47.79,-47.65,0,*6D
1516042815.17,16571,8.44,72764.5,-14.13,-47.79,-47.85,0,*60
1516042816.46,16572,8.44,72764.3,-14.13,-47.71,-47.79,0,*68
1516042817.75,16573,8.44,72766.3,-14.13,-47.71,-47.71,0,*61
1516042819.01,16574,8.5,72770.5,-14.13,-47.79,-47.57,0,*6A
1516042820.27,16575,8.5,72770.5,-14.13,-47.71,-47.57,0,*63
1516042821.56,16576,8.5,72768.3,-14.13,-47.71,-47.71,0,*64
1516042822.86,16577,8.44,72766.8,-14.13,-47.79,-47.79,0,*65
1516042824.14,16578,8.44,72768.0,-14.13,-47.71,-47.71,0,*6A
1516042825.44,16579,8.44,72768.3,-14.13,-47.79,-47.79,0,*6B
1516042826.73,16580,8.44,72764.3,-14.13,-47.71,-47.79,0,*65
1516042828.02,16581,8.5,72770.0,-14.13,-47.71,-47.71,0,*6C
1516042829.27,16582,8.5,72768.0,-14.13,-47.85,-47.85,0,*6F
1516042830.51,16583,8.44,72766.8,-14.13,-47.99,-47.99,0,*6E
1516042831.76,16584,8.44,72764.3,-14.13,-47.85,-47.85,0,*69
1516042833.01,16585,8.44,72764.3,-14.13,-48.07,-48.21,0,*6C
1516042834.26,16586,8.44,72766.3,-14.13,-47.99,-48.07,0,*63
1516042835.48,16587,8.44,72768.8,-14.15,-47.99,-48.21,0,*60
1516042836.71,16588,8.5,72772.5,-14.15,-47.85,-47.85,0,*63
1516042837.93,16589,8.44,72764.3,-14.15,-47.99,-47.99,0,*62
1516042839.18,16590,8.44,72766.0,-14.13,-47.99,-48.07,0,*64
1516042840.42,16591,8.44,72764.0,-14.13,-47.99,-47.99,0,*6D
1516042841.64,16592,8.44,72768.8,-14.15,-47.99,-47.99,0,*68
1516042842.86,16593,8.44,72764.3,-14.15,-47.99,-48.07,0,*61
1516042844.09,16594,8.44,72766.3,-14.15,-47.99,-48.07,0,*66
1516042845.33,16595,8.44,72768.3,-14.15,-47.79,-47.99,0,*61
1516042846.56,16596,8.44,72766.0,-14.15,-47.99,-48.07,0,*64
1516042847.78,16597,8.44,72766.5,-14.15,-47.99,-47.99,0,*6D
1516042849.0,16598,8.5,72768.8,-14.15,-47.99,-48.07,0,*6A
1516042850.23,16599,8.44,72770.0,-14.15,-47.85,-48.07,0,*66
1516042851.45,16600,8.44,72768.8,-14.15,-47.85,-47.99,0,*6D
1516042852.67,16601,8.44,72764.5,-14.15,-47.99,-47.85,0,*6C
1516042853.94,16602,8.44,72766.5,-14.17,-47.85,-47.93,0,*67
1516042855.22,16603,8.44,72766.0,-14.17,-47.93,-48.07,0,*63
1516042856.5,16604,8.44,72764.5,-14.21,-48.07,-47.93,0,*61
1516042857.79,16605,8.44,72766.8,-14.17,-47.93,-47.93,0,*67
1516042859.08,16606,8.44,72766.8,-14.17,-47.93,-47.93,0,*64
1516042860.37,16607,8.44,72766.8,-14.17,-47.93,-47.93,0,*65
1516042861.67,16608,8.44,72766.0,-14.17,-47.93,-47.79,0,*6E
1516042862.91,16609,8.44,72766.0,-14.21,-47.65,-47.65,0,*6E
1516042864.15,16610,8.44,72766.3,-14.21,-47.65,-47.65,0,*66
1516042865.4,16611,8.44,72764.3,-14.21,-47.65,-47.57,0,*66
1516042866.67,16612,8.44,72760.8,-14.17,-47.45,-47.57,0,*62
1516042867.91,16613,8.44,72766.8,-14.17,-47.57,-47.57,0,*60
1516042869.16,16614,8.44,72760.3,-14.21,-47.57,-47.57,0,*62
1516042870.39,16615,8.44,72764.3,-14.17,-47.65,-47.65,0,*66
1516042871.67,16616,8.44,72764.3,-14.17,-47.85,-47.79,0,*66
1516042872.97,16617,8.44,72766.8,-14.17,-47.79,-47.79,0,*64
1516042874.22,16618,8.44,72764.0,-14.17,-47.85,-47.85,0,*6B
1516042875.47,16619,8.44,72764.0,-14.17,-47.85,-47.85,0,*6A
1516042876.75,16620,8.44,72766.0,-14.21,-47.93,-48.07,0,*67
1516042878.02,16621,8.44,72764.8,-14.17,-47.65,-47.79,0,*6C
1516042879.3,16622,8.44,72762.8,-14.21,-47.85,-47.79,0,*64
1516042880.6,16623,8.44,72764.5,-14.17,-47.79,-47.79,0,*63
1516042881.85,16624,8.44,72764.8,-14.17,-47.57,-47.57,0,*64
1516042883.06,16625,8.44,72764.0,-14.15,-47.57,-47.51,0,*61
1516042884.34,16626,8.44,72762.0,-14.21,-47.57,-47.45,0,*60
1516042885.61,16627,8.5,72764.0,-14.17,-47.65,-47.45,0,*65
1516042886.88,16628,8.44,72760.3,-14.17,-47.57,-47.37,0,*6E
1516042888.18,16629,8.44,72760.8,-14.17,-47.37,-47.37,0,*69
1516042889.45,16630,8.44,72760.5,-14.17,-47.45,-47.57,0,*62
1516042890.67,16631,8.44,72766.8,-14.15,-47.51,-47.65,0,*65
1516042891.9,16632,8.44,72764.8,-14.15,-47.71,-47.57,0,*65
1516042893.12,16633,8.44,72766.0,-14.15,-47.57,-47.57,0,*60
1516042894.35,16634,8.44,72760.3,-14.15,-47.71,-47.57,0,*63
1516042895.59,16635,8.44,72766.3,-14.15,-47.57,-47.71,0,*62
1516042896.83,16636,8.44,72766.8,-14.15,-47.71,-47.57,0,*61
1516042898.09,16637,8.44,72760.8,-14.15,-47.71,-47.71,0,*64
1516042899.39,16638,8.44,72764.8,-14.17,-47.79,-47.79,0,*69
1516042900.66,16639,8.44,72764.5,-14.17,-47.45,-47.57,0,*6B
1516042901.94,16640,8.44,72766.8,-14.21,-47.79,-47.65,0,*6E
1516042903.21,16641,8.44,72766.0,-14.17,-47.79,-47.85,0,*64
1516042904.49,16642,8.44,72764.8,-14.17,-47.85,-47.79,0,*67
1516042905.73,16643,8.44,72762.5,-14.21,-47.65,-47.65,0,*60
1516042906.97,16644,8.44,72766.8,-14.17,-47.65,-47.57,0,*63
1516042908.27,16645,8.44,72764.5,-14.17,-47.79,-47.79,0,*63
1516042909.57,16646,8.44,72760.3,-14.17,-47.45,-47.45,0,*60
1516042910.87,16647,8.44,72766.0,-14.17,-47.45,-47.37,0,*64
1516042912.18,16648,8.44,72764.3,-14.17,-47.45,-47.45,0,*6E
1516042913.48,16649,8.44,72764.5,-14.17,-47.37,-47.45,0,*6A
1516042914.7,16650,8.44,72762.5,-14.15,-47.51,-47.31,0,*63
1516042916.0,16651,8.44,72764.8,-14.17,-47.45,-47.45,0,*66
1516042917.3,16652,8.44,72764.5,-14.17,-47.45,-47.37,0,*60
1516042918.61,16653,8.44,72764.8,-14.17,-47.45,-47.45,0,*64
1516042919.91,16654,8.44,72764.3,-14.17,-47.45,-47.45,0,*63
1516042921.15,16655,8.44,72764.8,-14.17,-47.57,-47.65,0,*63
1516042922.39,16656,8.44,72766.5,-14.17,-47.57,-47.57,0,*61
1516042923.61,16657,8.44,72760.8,-14.15,-47.57,-47.57,0,*62
1516042924.83,16658,8.44,72760.5,-14.15,-47.57,-47.57,0,*6D
1516042926.1,16659,8.44,72764.5,-14.15,-47.79,-47.71,0,*64
1516042927.37,16660,8.44,72766.0,-14.15,-47.37,-47.37,0,*66
1516042928.61,16661,8.44,72764.0,-14.15,-47.37,-47.51,0,*67
1516042929.83,16662,8.44,72764.5,-14.15,-47.57,-47.51,0,*62
1516042931.05,16663,8.44,72764.3,-14.15,-47.57,-47.57,0,*65
1516042932.26,16664,8.44,72760.8,-14.15,-47.57,-47.57,0,*62
1516042933.5,16665,8.44,72764.5,-14.15,-47.51,-47.37,0,*63
1516042934.72,16666,8.44,72764.0,-14.15,-47.57,-47.51,0,*66
1516042935.96,16667,8.44,72766.0,-14.15,-47.71,-47.57,0,*65
1516042937.21,16668,8.44,72760.0,-14.17,-47.85,-47.85,0,*6C
1516042938.49,16669,8.44,72762.5,-14.17,-47.85,-47.79,0,*6E
1516042939.74,16670,8.44,72766.3,-14.17,-47.85,-47.85,0,*65
1516042941.04,16671,8.44,72766.0,-14.17,-47.79,-47.79,0,*64
1516042942.31,16672,8.44,72766.0,-14.17,-47.79,-47.65,0,*6A
1516042943.61,16673,8.44,72764.0,-14.17,-47.79,-47.79,0,*66
1516042944.9,16674,8.44,72764.5,-14.21,-47.93,-47.93,0,*64
1516042946.14,16675,8.44,72760.5,-14.17,-47.65,-47.57,0,*61
1516042947.44,16676,8.44,72764.8,-14.17,-47.45,-47.45,0,*63
1516042948.69,16677,8.44,72762.0,-14.17,-47.57,-47.57,0,*62
1516042949.96,16678,8.44,72760.5,-14.17,-47.57,-47.45,0,*6E
1516042951.26,16679,8.44,72764.3,-14.21,-47.37,-47.37,0,*69
1516042952.57,16680,8.44,72762.0,-14.17,-47.45,-47.45,0,*6A
1516042953.87,16681,8.44,72760.8,-14.17,-47.45,-47.45,0,*6B
1516042955.11,16682,8.44,72760.8,-14.17,-47.57,-47.65,0,*69
1516042956.35,16683,8.44,72764.3,-14.17,-47.57,-47.57,0,*69
1516042957.63,16684,8.44,72762.3,-14.17,-47.45,-47.57,0,*6D
1516042958.93,16685,8.44,72764.3,-14.17,-47.79,-47.79,0,*6F
1516042960.16,16686,8.44,72762.3,-14.17,-47.65,-47.57,0,*6D
1516042961.41,16687,8.44,72762.8,-14.15,-47.37,-47.31,0,*69
1516042962.66,16688,8.44,72764.0,-14.15,-47.51,-47.37,0,*60
1516042963.87,16689,8.44,72760.8,-14.15,-47.51,-47.51,0,*61
1516042965.13,16690,8.44,72764.0,-14.15,-47.71,-47.71,0,*69
1516042966.35,16691,8.44,72764.0,-14.15,-47.51,-47.51,0,*68
1516042967.57,16692,8.44,72766.5,-14.15,-47.51,-47.51,0,*6B
1516042968.83,16693,8.44,72764.8,-14.15,-47.71,-47.79,0,*62
1516042970.1,16694,8.44,72766.5,-14.15,-47.71,-47.71,0,*6D
1516042971.39,16695,8.44,72766.5,-14.17,-47.93,-47.93,0,*6E
1516042972.66,16696,8.44,72764.0,-14.17,-47.85,-47.93,0,*6A
1516042973.9,16697,8.44,72760.8,-14.17,-47.65,-47.57,0,*6D
1516042975.2,16698,8.44,72766.0,-14.21,-47.45,-47.37,0,*63
1516042976.44,16699,8.44,72766.5,-14.17,-47.65,-47.57,0,*63
1516042977.71,16700,8.44,72764.3,-14.17,-47.57,-47.45,0,*60
1516042979.01,16701,8.44,72766.3,-14.17,-47.79,-47.79,0,*62
1516042980.26,16702,8.44,72764.8,-14.17,-47.57,-47.57,0,*61
1516042981.5,16703,8.44,72764.5,-14.17,-47.57,-47.57,0,*60
1516042982.74,16704,8.44,72762.3,-14.21,-47.57,-47.65,0,*63
1516042984.04,16705,8.44,72764.3,-14.17,-47.79,-47.79,0,*66
1516042985.28,16706,8.44,72764.0,-14.17,-47.65,-47.57,0,*64
1516042986.56,16707,8.44,72766.5,-14.17,-47.57,-47.45,0,*67
1516042987.82,16708,8.44,72770.3,-14.17,-47.79,-47.65,0,*66
1516042989.07,16709,8.44,72770.0,-14.17,-47.85,-47.65,0,*64
1516042990.32,16710,8.44,72766.0,-14.17,-47.85,-47.85,0,*62
1516042991.59,16711,8.44,72764.8,-14.17,-47.79,-47.65,0,*6E
1516042992.86,16712,8.44,72768.0,-14.17,-47.57,-47.45,0,*63
1516042994.1,16713,8.44,72768.0,-14.17,-47.65,-47.65,0,*61
1516042995.4,16714,8.44,72764.8,-14.17,-47.79,-47.79,0,*66
1516042996.64,16715,8.44,72764.0,-14.17,-47.65,-47.57,0,*66
1516042997.91,16716,8.44,72770.5,-14.17,-47.57,-47.37,0,*62
1516042999.21,16717,8.44,72768.3,-14.17,-47.45,-47.37,0,*60
1516043000.49,16718,8.44,72768.5,-14.21,-47.45,-47.57,0,*6C
1516043001.72,16719,8.44,72766.8,-14.17,-47.65,-47.65,0,*6B
1516043003.0,16720,8.44,72764.5,-14.17,-47.45,-47.57,0,*62
1516043004.24,16721,8.44,72766.8,-14.15,-47.51,-47.37,0,*62
1516043005.47,16722,8.44,72768.3,-14.15,-47.71,-47.57,0,*65
1516043006.76,16723,8.44,72766.8,-14.21,-47.85,-47.79,0,*64
1516043008.02,16724,8.44,72770.0,-14.17,-47.79,-47.65,0,*68
1516043009.26,16725,8.44,72768.3,-14.17,-47.65,-47.65,0,*64
1516043010.51,16726,8.44,72770.5,-14.17,-47.85,-47.65,0,*69
1516043011.77,16727,8.44,72764.5,-14.17,-47.79,-47.65,0,*6B
1516043013.01,16728,8.44,72768.5,-14.17,-47.65,-47.65,0,*69
1516043014.25,16729,8.44,72768.8,-14.21,-47.65,-47.57,0,*6C
1516043015.53,16730,8.44,72764.8,-14.17,-47.57,-47.45,0,*63
1516043016.77,16731,8.44,72766.8,-14.21,-47.65,-47.57,0,*65
1516043018.01,16732,8.44,72764.5,-14.17,-47.57,-47.65,0,*63
1516043019.32,16733,8.44,72768.8,-14.17,-47.45,-47.45,0,*63
1516043020.55,16734,8.44,72764.0,-14.17,-47.65,-47.57,0,*65
1516043021.86,16735,8.44,72766.0,-14.17,-47.45,-47.45,0,*65
1516043023.1,16736,8.44,72766.3,-14.17,-47.65,-47.65,0,*66
1516043024.37,16737,8.44,72764.8,-14.21,-47.57,-47.45,0,*61
1516043025.65,16738,8.44,72764.5,-14.17,-47.57,-47.45,0,*6B
1516043026.92,16739,8.44,72764.5,-14.17,-47.45,-47.57,0,*6A
1516043028.19,16740,8.44,72768.5,-14.17,-47.79,-47.65,0,*6A
1516043029.46,16741,8.44,72770.8,-14.17,-47.79,-47.57,0,*6A
1516043030.7,16742,8.44,72766.5,-14.17,-47.57,-47.65,0,*64
1516043032.0,16743,8.44,72766.0,-14.17,-47.79,-47.79,0,*64
1516043033.3,16744,8.44,72770.3,-14.17,-47.79,-47.79,0,*63
1516043034.55,16745,8.44,72768.0,-14.17,-47.85,-47.85,0,*62
1516043035.82,16746,8.44,72766.3,-14.17,-47.85,-47.93,0,*66
1516043037.12,16747,8.44,72766.3,-14.21,-47.93,-47.93,0,*65
1516043038.37,16748,8.44,72770.5,-14.17,-47.85,-47.85,0,*6F
1516043039.65,16749,8.44,72764.3,-14.21,-47.93,-47.85,0,*6C
1516043040.9,16750,8.44,72766.8,-14.17,-47.85,-47.85,0,*66
1516043042.17,16751,8.44,72766.0,-14.17,-47.79,-47.65,0,*6A
1516043043.44,16752,8.44,72764.0,-14.17,-47.65,-47.79,0,*69
1516043044.71,16753,8.44,72768.0,-14.17,-47.85,-47.79,0,*66
1516043045.98,16754,8.44,72764.0,-14.17,-47.93,-47.85,0,*65
1516043047.23,16755,8.44,72768.0,-14.21,-47.57,-47.57,0,*66
1516043048.47,16756,8.44,72766.3,-14.21,-47.65,-47.57,0,*64
1516043049.78,16757,8.44,72764.3,-14.17,-47.45,-47.45,0,*61
1516043051.08,16758,8.44,72764.3,-14.21,-47.37,-47.37,0,*6B
1516043052.36,16759,8.44,72760.8,-14.17,-47.79,-47.85,0,*6C
1516043053.6,16760,8.44,72762.0,-14.21,-47.65,-47.57,0,*61
1516043054.84,16761,8.44,72760.3,-14.17,-47.65,-47.57,0,*65
1516043056.11,16762,8.44,72762.8,-14.17,-47.45,-47.57,0,*64
1516043057.38,16763,8.44,72764.8,-14.21,-47.45,-47.57,0,*60
1516043058.63,16764,8.44,72760.5,-14.21,-47.57,-47.57,0,*64
1516043059.93,16765,8.44,72760.8,-14.17,-47.79,-47.79,0,*60
1516043061.23,16766,8.44,72760.0,-14.21,-47.79,-47.79,0,*66
1516043062.53,16767,8.44,72758.5,-14.17,-47.79,-47.93,0,*66
1516043063.8,16768,8.44,72760.8,-14.21,-47.65,-47.45,0,*6A
1516043065.1,16769,8.44,72762.0,-14.17,-47.79,-47.79,0,*6C
1516043066.38,16770,8.44,72762.5,-14.17,-47.85,-47.79,0,*67
1516043067.62,16771,8.44,72758.8,-14.17,-47.85,-47.65,0,*6B
1516043068.87,16772,8.44,72756.3,-14.21,-47.57,-47.57,0,*63
1516043070.14,16773,8.44,72758.0,-14.17,-47.57,-47.45,0,*64
1516043071.44,16774,8.44,72758.0,-14.17,-47.45,-47.37,0,*65
1516043072.75,16775,8.38,72756.3,-14.17,-47.45,-47.45,0,*61
1516043073.99,16776,8.44,72758.5,-14.17,-47.65,-47.57,0,*63
1516043075.26,16777,8.44,72760.8,-14.21,-47.79,-47.65,0,*6B
1516043076.5,16778,8.44,72758.5,-14.17,-47.65,-47.65,0,*6C
1516043077.8,16779,8.44,72760.0,-14.17,-47.45,-47.37,0,*68
1516043079.09,16780,8.44,72760.5,-14.17,-47.37,-47.37,0,*6B
1516043080.39,16781,8.44,72762.3,-14.17,-47.37,-47.37,0,*6A
1516043081.69,16782,8.44,72762.5,-14.17,-47.23,-47.37,0,*6C
1516043082.99,16783,8.44,72760.5,-14.17,-47.37,-47.23,0,*6D
1516043084.29,16784,8.44,72762.5,-14.17,-47.23,-47.23,0,*6F
1516043085.5,16785,8.38,72758.0,-14.15,-47.17,-47.17,0,*6C
1516043086.75,16786,8.44,72762.0,-14.15,-47.37,-47.31,0,*69
1516043088.0,16787,8.44,72762.0,-14.15,-47.37,-47.31,0,*68
1516043089.22,16788,8.44,72764.5,-14.15,-47.51,-47.31,0,*67
1516043090.49,16789,8.44,72764.0,-14.17,-47.57,-47.37,0,*64
1516043091.74,16790,8.44,72760.0,-14.15,-47.51,-47.37,0,*68
1516043092.98,16791,8.44,72758.3,-14.17,-47.57,-47.65,0,*6A
1516043094.23,16792,8.44,72758.5,-14.15,-47.37,-47.31,0,*6C
1516043095.45,16793,8.38,72758.0,-14.15,-47.51,-47.51,0,*6B
1516043096.72,16794,8.44,72762.8,-14.15,-47.37,-47.37,0,*6C
1516043097.96,16795,8.44,72762.3,-14.17,-47.57,-47.57,0,*6F
1516043099.21,16796,8.44,72760.3,-14.15,-47.37,-47.31,0,*68
1516043100.48,16797,8.44,72762.5,-14.15,-47.37,-47.37,0,*6F
1516043101.73,16798,8.44,72760.8,-14.15,-47.51,-47.37,0,*60
1516043102.94,16799,8.38,72762.0,-14.15,-47.51,-47.51,0,*61
1516043104.18,16800,8.44,72760.3,-14.13,-47.57,-47.57,0,*68
1516043105.4,16801,8.38,72760.0,-14.15,-47.51,-47.51,0,*6F
1516043106.66,16802,8.44,72760.5,-14.13,-47.71,-47.57,0,*6E
1516043107.88,16803,8.44,72762.5,-14.15,-47.51,-47.51,0,*6D
1516043109.09,16804,8.38,72756.8,-14.15,-47.51,-47.51,0,*6A
1516043110.36,16805,8.38,72762.8,-14.13,-47.37,-47.51,0,*6D
1516043111.61,16806,8.44,72762.0,-14.15,-47.37,-47.51,0,*68
1516043112.91,16807,8.44,72760.0,-14.13,-47.37,-47.37,0,*6F
1516043114.12,16808,8.38,72758.5,-14.15,-47.57,-47.51,0,*60
1516043115.34,16809,8.38,72758.3,-14.15,-47.57,-47.51,0,*61
1516043116.58,16810,8.44,72768.3,-14.13,-47.57,-47.51,0,*6F
1516043117.8,16811,8.44,72766.5,-14.15,-47.51,-47.51,0,*6E
1516043119.02,16812,8.38,72756.8,-14.15,-47.57,-47.51,0,*6B
1516043120.26,16813,8.38,72756.3,-14.15,-47.51,-47.37,0,*6C
1516043121.5,16814,8.44,72758.8,-14.13,-47.51,-47.57,0,*6B
1516043122.77,16815,8.38,72756.0,-14.13,-47.37,-47.31,0,*6A
1516043124.02,16816,8.38,72758.5,-14.15,-47.37,-47.31,0,*6F
1516043125.3,16817,8.38,72754.5,-14.13,-47.37,-47.31,0,*68
1516043126.55,16818,8.38,72756.8,-14.13,-47.31,-47.31,0,*61
1516043127.8,16819,8.38,72758.3,-14.13,-47.31,-47.31,0,*60
1516043129.04,16820,8.44,72756.8,-14.13,-47.17,-47.31,0,*6E
1516043130.34,16821,8.38,72754.5,-14.13,-47.37,-47.37,0,*6B
1516043131.61,16822,8.38,72752.8,-14.13,-47.37,-47.31,0,*6E
1516043132.85,16823,8.38,72756.8,-14.13,-47.57,-47.51,0,*6F
1516043134.12,16824,8.38,72756.5,-14.13,-47.51,-47.37,0,*6E
1516043135.39,16825,8.38,72756.3,-14.13,-47.57,-47.37,0,*69
1516043136.66,16826,8.44,72760.3,-14.13,-47.57,-47.71,0,*68
1516043137.93,16827,8.38,72752.8,-14.13,-47.37,-47.31,0,*6B
1516043139.17,16828,8.38,72754.8,-14.13,-47.57,-47.51,0,*64
1516043140.44,16829,8.38,72758.0,-14.11,-47.45,-47.23,0,*61
1516043141.69,16830,8.44,72756.5,-14.11,-47.45,-47.31,0,*6A
1516043142.99,16831,8.38,72758.5,-14.13,-47.37,-47.37,0,*6A
1516043144.24,16832,8.38,72754.8,-14.11,-47.45,-47.31,0,*68
1516043145.46,16833,8.44,72760.3,-14.11,-47.31,-47.31,0,*6A
1516043146.68,16834,8.38,72758.5,-14.11,-47.31,-47.31,0,*6D
1516043147.93,16835,8.38,72758.5,-14.11,-47.31,-47.23,0,*6F
1516043149.15,16836,8.38,72756.3,-14.11,-47.31,-47.31,0,*6F
1516043150.4,16837,8.38,72756.3,-14.11,-47.31,-47.23,0,*6D
1516043151.62,16838,8.44,72762.3,-14.11,-47.31,-47.31,0,*61
1516043152.87,16839,8.38,72754.5,-14.11,-47.09,-47.23,0,*68
1516043154.12,16840,8.38,72758.0,-14.11,-47.45,-47.31,0,*6D
1516043155.42,16841,8.38,72756.3,-14.09,-47.45,-47.23,0,*66
1516043156.68,16842,8.38,72758.0,-14.11,-47.23,-47.23,0,*6C
1516043157.98,16843,8.44,72760.3,-14.09,-47.23,-47.23,0,*64
1516043159.2,16844,8.38,72758.3,-14.11,-47.51,-47.31,0,*6C
1516043160.43,16845,8.38,72756.8,-14.09,-47.65,-47.51,0,*65
1516043161.7,16846,8.38,72758.8,-14.09,-47.51,-47.45,0,*64
1516043162.94,16847,8.38,72758.5,-14.09,-47.51,-47.51,0,*60
1516043164.19,16848,8.38,72758.8,-14.11,-47.31,-47.23,0,*65
1516043165.47,16849,8.38,72758.0,-14.09,-47.31,-47.23,0,*6D
1516043166.77,16850,8.38,72762.8,-14.09,-47.45,-47.23,0,*66
1516043168.01,16851,8.38,72760.8,-14.11,-47.45,-47.31,0,*6D
1516043169.28,16852,8.38,72762.0,-14.09,-47.65,-47.45,0,*66
1516043170.58,16853,8.44,72762.5,-14.09,-47.23,-47.23,0,*65
1516043171.88,16854,8.38,72758.3,-14.09,-47.45,-47.45,0,*62
1516043173.12,16855,8.38,72760.3,-14.09,-47.65,-47.31,0,*62
1516043174.35,16856,8.38,72756.8,-14.09,-47.65,-47.65,0,*60
1516043175.64,16857,8.38,72760.8,-14.09,-47.71,-47.71,0,*61
1516043176.88,16858,8.38,72758.3,-14.11,-47.51,-47.45,0,*62
1516043178.12,16859,8.38,72758.5,-14.09,-47.51,-47.65,0,*68
1516043179.41,16860,8.38,72756.3,-14.09,-47.79,-47.71,0,*6D
1516043180.71,16861,8.38,72762.8,-14.09,-47.79,-47.79,0,*64
1516043181.97,16862,8.38,72762.8,-14.09,-47.79,-47.65,0,*6A
1516043183.23,16863,8.38,72760.0,-14.09,-47.71,-47.65,0,*63
1516043184.53,16864,8.38,72758.3,-14.09,-47.79,-47.71,0,*69
1516043185.76,16865,8.38,72760.5,-14.11,-47.71,-47.65,0,*6C
1516043187.02,16866,8.38,72758.3,-14.09,-47.71,-47.65,0,*66
1516043188.31,16867,8.38,72758.8,-14.09,-47.79,-47.71,0,*6A
1516043189.57,16868,8.38,72758.5,-14.09,-47.71,-47.65,0,*68
1516043190.8,16869,8.38,72762.0,-14.11,-47.71,-47.65,0,*60
1516043192.04,16870,8.38,72760.8,-14.11,-47.79,-47.65,0,*60
1516043193.3,16871,8.38,72762.8,-14.09,-47.71,-47.65,0,*60
1516043194.58,16872,8.38,72760.0,-14.09,-47.71,-47.71,0,*66
1516043195.85,16873,8.38,72760.0,-14.11,-47.79,-47.79,0,*6E
1516043197.15,16874,8.38,72760.3,-14.09,-47.79,-47.79,0,*60
1516043198.41,16875,8.38,72762.5,-14.11,-47.79,-47.71,0,*60
1516043199.71,16876,8.38,72762.0,-14.09,-47.93,-47.79,0,*66
1516043201.0,16877,8.38,72762.3,-14.09,-47.79,-47.71,0,*6B
1516043202.3,16878,8.38,72762.0,-14.09,-47.79,-47.79,0,*6C
1516043203.56,16879,8.38,72758.8,-14.11,-47.93,-47.93,0,*64
1516043204.83,16880,8.44,72762.3,-14.11,-47.79,-47.79,0,*62
1516043206.09,16881,8.38,72758.5,-14.11,-47.71,-47.79,0,*6B
1516043207.39,16882,8.38,72762.8,-14.09,-47.79,-47.71,0,*61
1516043208.63,16883,8.38,72760.3,-14.11,-47.79,-47.65,0,*6C
1516043209.9,16884,8.38,72760.0,-14.11,-47.79,-47.79,0,*66
1516043211.16,16885,8.38,72760.3,-14.09,-47.71,-47.65,0,*6B
1516043212.39,16886,8.38,72762.8,-14.11,-47.71,-47.65,0,*61
1516043213.65,16887,8.38,72762.3,-14.11,-47.79,-47.71,0,*6D
1516043214.95,16888,8.38,72762.3,-14.09,-47.79,-47.79,0,*63
1516043216.22,16889,8.38,72760.5,-14.09,-47.93,-47.99,0,*68
1516043217.49,16890,8.38,72760.0,-14.11,-47.93,-47.79,0,*67
1516043218.78,16891,8.38,72760.5,-14.09,-47.79,-47.79,0,*6B
1516043220.02,16892,8.38,72762.5,-14.09,-47.65,-47.65,0,*68
1516043221.28,16893,8.38,72760.3,-14.11,-47.71,-47.79,0,*68
1516043222.55,16894,8.38,72760.8,-14.11,-47.79,-47.79,0,*67
1516043223.81,16895,8.38,72760.5,-14.11,-47.71,-47.71,0,*66
1516043225.1,16896,8.38,72756.3,-14.09,-47.93,-47.93,0,*6C
1516043226.36,16897,8.38,72758.8,-14.09,-47.71,-47.65,0,*68
1516043227.62,16898,8.38,72758.0,-14.11,-47.79,-47.71,0,*63
1516043228.86,16899,8.38,72760.5,-14.11,-47.99,-47.93,0,*60
1516043230.12,16900,8.38,72758.3,-14.11,-47.71,-47.71,0,*6B
1516043231.39,16901,8.38,72758.0,-14.11,-47.79,-47.79,0,*6A
1516043232.66,16902,8.38,72762.8,-14.11,-47.79,-47.79,0,*69
1516043233.92,16903,8.44,72762.5,-14.11,-47.93,-47.93,0,*68
1516043235.19,16904,8.38,72756.0,-14.11,-47.93,-47.79,0,*6B
1516043236.43,16905,8.38,72760.8,-14.11,-47.93,-47.99,0,*64
1516043237.7,16906,8.38,72766.8,-14.13,-47.85,-47.71,0,*64
1516043238.95,16907,8.38,72762.0,-14.13,-47.85,-47.85,0,*6E
1516043240.22,16908,8.38,72756.0,-14.13,-47.79,-47.57,0,*6D
1516043241.49,16909,8.38,72758.8,-14.13,-47.37,-47.57,0,*66
1516043242.72,16910,8.38,72758.8,-14.13,-47.57,-47.57,0,*68
1516043243.96,16911,8.38,72758.3,-14.13,-47.57,-47.57,0,*69
1516043245.2,16912,8.38,72762.5,-14.13,-47.57,-47.57,0,*6A
1516043246.41,16913,8.44,72760.3,-14.11,-47.65,-47.65,0,*69
1516043247.65,16914,8.38,72760.8,-14.09,-47.65,-47.65,0,*67
1516043248.86,16915,8.38,72760.0,-14.11,-47.51,-47.51,0,*6F
1516043250.07,16916,8.38,72758.8,-14.11,-47.51,-47.51,0,*6C
1516043251.28,16917,8.38,72760.8,-14.11,-47.65,-47.65,0,*6D
1516043252.49,16918,8.38,72756.3,-14.11,-47.51,-47.65,0,*65
1516043253.74,16919,8.38,72750.0,-14.11,-47.51,-47.45,0,*66
1516043254.94,16920,8.38,72750.8,-14.11,-47.65,-47.65,0,*69
1516043256.2,16921,8.38,72750.3,-14.11,-47.71,-47.71,0,*68
1516043257.47,16922,8.38,72752.3,-14.11,-47.79,-47.79,0,*6B
1516043258.74,16923,8.38,72758.3,-14.11,-47.79,-47.79,0,*6A
1516043259.98,16924,8.38,72758.8,-14.11,-47.65,-47.71,0,*68
1516043261.21,16925,8.38,72762.3,-14.11,-47.71,-47.65,0,*69
1516043262.44,16926,8.38,72758.5,-14.09,-47.65,-47.65,0,*66
1516043263.74,16927,8.38,72756.0,-14.09,-47.79,-47.71,0,*6F
1516043265.0,16928,8.38,72762.5,-14.11,-47.79,-47.71,0,*69
1516043266.27,16929,8.38,72760.5,-14.11,-47.93,-47.79,0,*64
1516043267.54,16930,8.38,72758.8,-14.11,-47.79,-47.79,0,*68
1516043268.8,16931,8.38,72760.5,-14.11,-47.71,-47.79,0,*61
1516043270.04,16932,8.38,72760.0,-14.09,-47.65,-47.51,0,*64
1516043271.25,16933,8.38,72760.5,-14.11,-47.65,-47.65,0,*6B
1516043272.51,16934,8.38,72760.8,-14.11,-47.71,-47.71,0,*6C
1516043273.8,16935,8.38,72758.8,-14.13,-47.71,-47.79,0,*67
1516043275.07,16936,8.38,72760.3,-14.13,-47.79,-47.85,0,*6F
1516043276.34,16937,8.38,72762.8,-14.11,-47.93,-47.93,0,*6F
1516043277.63,16938,8.38,72762.8,-14.09,-47.79,-47.93,0,*6D
1516043278.89,16939,8.38,72762.3,-14.11,-47.79,-47.71,0,*69
1516043280.16,16940,8.38,72764.3,-14.11,-47.93,-47.79,0,*6B
1516043281.4,16941,8.38,72764.3,-14.11,-47.99,-47.93,0,*64
1516043282.63,16942,8.38,72762.3,-14.15,-48.07,-48.07,0,*69
1516043283.88,16943,8.38,72760.0,-14.13,-47.99,-47.85,0,*63
1516043285.14,16944,8.38,72764.3,-14.11,-47.79,-47.93,0,*6F
1516043286.41,16945,8.38,72764.5,-14.13,-47.79,-47.99,0,*66
1516043287.65,16946,8.38,72760.0,-14.15,-47.85,-47.71,0,*66
1516043288.93,16947,8.38,72760.3,-14.13,-47.85,-47.79,0,*69
1516043290.15,16948,8.38,72760.3,-14.15,-47.99,-47.99,0,*63
1516043291.37,16949,8.38,72760.8,-14.15,-47.85,-47.85,0,*62
1516043292.62,16950,8.38,72758.8,-14.15,-47.79,-47.85,0,*69
1516043293.9,16951,8.38,72758.3,-14.13,-47.85,-47.79,0,*6E
1516043295.14,16952,8.38,72756.5,-14.15,-47.79,-47.85,0,*6B
1516043296.42,16953,8.38,72756.3,-14.15,-47.79,-47.79,0,*69
1516043297.71,16954,8.38,72758.0,-14.13,-47.79,-47.71,0,*60
1516043298.99,16955,8.38,72756.8,-14.15,-47.79,-47.79,0,*6F
1516043300.25,16956,8.38,72762.5,-14.15,-47.79,-47.71,0,*64
1516043301.52,16957,8.38,72760.5,-14.15,-47.71,-47.71,0,*6D
1516043302.79,16958,8.38,72754.5,-14.15,-47.79,-47.71,0,*6A
1516043304.02,16959,8.38,72756.5,-14.15,-47.71,-47.51,0,*61
1516043305.29,16960,8.38,72756.3,-14.15,-47.71,-47.71,0,*69